Simultaneous Nadir Overpasses (SNOs) Predictions

Prediction of SNOs between AQUA and NOAA-19 Satellite Orbit:

Table of predicted SNOs for the next 14.0 days since TLE Epoch: 12/26/2020
Index Date (AQUA) Time (AQUA) Lat,Lon (AQUA) SZA (AQUA ) Date (NOAA-19) Time (NOAA-19) Lat,Lon (NOAA-19) SZA (NOAA-19 ) Distance(km) Time Diff (sec)
1 12/27/2020 15:32:42 79.29, -78.68 103.52 12/27/2020 15:31:29 79.16, -79.24 103.47 18.46 73
2 12/27/2020 16:22:08 -79.29, 88.94 76.48 12/27/2020 16:22:24 -79.27, 89.02 76.51 2.65 16
3 12/29/2020 21:55:52 79.26,-174.30 103.38 12/29/2020 21:55:39 79.28,-174.17 103.38 3.19 13
4 12/29/2020 22:45:24 -79.49, -8.19 76.30 12/29/2020 22:46:30 -79.49, -4.91 76.57 66.50 66
5 01/01/2021 03:29:35 -79.24, -77.58 76.81 01/01/2021 03:28:51 -79.25, -77.64 76.78 1.80 44
6 01/01/2021 04:19:03 79.28, 89.80 103.25 01/01/2021 04:19:53 79.27, 89.80 103.23 0.91 50
7 01/03/2021 09:03:19 79.22, 19.08 102.99 01/03/2021 09:02:07 79.25, 19.12 103.03 2.77 72
8 01/03/2021 09:52:46 -79.25,-173.47 76.98 01/03/2021 09:53:04 -79.25,-173.54 76.97 1.38 18
9 01/05/2021 15:26:30 79.25, -76.87 102.80 01/05/2021 15:26:21 79.23, -76.94 102.80 2.05 9
10 01/05/2021 16:16:04 -79.54, 88.80 76.79 01/05/2021 16:17:07 -79.55, 93.35 77.14 91.76 63
11 01/07/2021 21:00:13 -79.22, 19.86 77.50 01/07/2021 20:59:31 -79.22, 19.75 77.48 2.12 42



Historial Predications of SNOs between AQUA and NOAA-19
